885  
ASUS41 KGYX 212010  
RWRGYX  
WEATHER ROUNDUP FOR MAINE AND NEW HAMPSHIRE  
NATIONAL WEATHER SERVICE GRAY ME  
300 PM EST SUN JAN 21 2018  
 
MEZ002-005-006-010-012-015-018-020-021-024-026-027-029-212100-  
MAINE  
 
CITY SKY/WX TMP DP RH WIND PRES REMARKS
 
PORTLAND PTSUNNY 42 29 59 CALM 30.10R  
SANFORD FAIR 44 26 49 W13 30.09S  
BAR HARBOR FAIR 39 19 44 N5 30.07R  
WISCASSET FAIR 42 25 50 NW5 30.10R  
ROCKLAND FAIR 41 24 51 W8 30.09R  
FRYEBURG FAIR 42 25 50 W12G17 30.08R  
LEWISTONAUBURN FAIR 42 24 49 NW10 30.09R  
AUGUSTA PTSUNNY 40 24 53 NW10 30.09R  
WATERVILLE CLOUDY 40 23 50 NW8 30.04R  
BANGOR PTSUNNY 37 20 50 N6 30.07R  
GREENVILLE N/A 27 13 55 NW13G23 30.01R WCI 16  
MILLINOCKET FAIR 31 10 41 W10G22 30.07R  
HOULTON FAIR 26 2 35 W7 30.03R  
PRESQUE ISLE FAIR 24 5 44 NW8 30.03R  
FRENCHVILLE CLOUDY 14 0 53 N8 30.00R  
CARIBOU FAIR 22 4 46 NW7 30.01R  

 
 
NHZ002-005-008-009-011-012-014-212100-  
NEW HAMPSHIRE  
 
CITY SKY/WX TMP DP RH WIND PRES REMARKS
 
PORTSMOUTH PTSUNNY 45 28 50 NW7 30.09R  
ROCHESTER FAIR 44 29 55 NW8 30.09R  
NASHUA FAIR 47 29 49 N5 30.10S  
MANCHESTER PTSUNNY 47 29 49 NW5 30.09R  
CONCORD FAIR 45 30 55 NW5 30.09S  
PLYMOUTH FAIR 42 28 58 CALM 30.09S  
BERLIN CLOUDY 36 25 64 VRB5 30.07R  
WHITEFIELD CLOUDY 38 26 62 W8 30.08R  
JAFFREY FAIR 44 29 55 NW3 30.08S  
KEENE FAIR 47 30 51 N5 30.10S  
LEBANON FAIR 42 31 64 CALM 30.09R  
MT WASHINGTON FOG 14 14 100 NW47G54 N/A VSB 1/16WCI -11  

 
 
VTZ005-007-008-212100-  
VERMONT  
 
CITY SKY/WX TMP DP RH WIND PRES REMARKS
 
ST JOHNSBURY N/A 39 27 62 MISG 30.08R  
MONTPELIER PTSUNNY 38 29 70 N5 30.11R  
BURLINGTON PTSUNNY 39 27 62 CALM 30.11R  

 
 
MAZ007-012-024-CTZ003-RIZ002-NYZ038-NYZ072-212100-  
SOUTHERN NEW ENGLAND AND NY  
 
CITY SKY/WX TMP DP RH WIND PRES REMARKS
 
BOSTON CLOUDY 49 29 46 SW6 30.11S  
WORCESTER FAIR 43 27 53 W8 30.09R  
NANTUCKET FAIR 47 31 53 N7 30.13R  
PROVIDENCE PTSUNNY 50 31 48 W5 30.12S  
HARTFORD PTSUNNY 48 30 49 CALM 30.12R  
ALBANY CLOUDY 41 29 62 NW3 30.14F  
NEW YORK CITY PTSUNNY 52 29 41 NW3 30.13S  

 
 
ANZ081-ANZ082-ANZ150-NHZ014-MEZ023>029-212100-  
COASTAL MARINE OBSERVATIONS  
 
STATION/POSITION TIME TEMP WIND PRES WAVE
 
AIR SEA DIR/SP/G HT/PER  
(UTC) (F) (DEG/KT/KT) (MB) (FT/S)  
MOUNT DESERT ROC 2000 40 240/ 9/ 9 1018.8R  
MATINICUS ROCK 1900 40 260/ 10/ 10 1017.9S  
ISLE OF SHOALS 1900 45 300/ 13/ 13 1018.6F  
JEFFREYS LEDGE 1936 43 N/A 2/ 8  
GEORGES BANK BUO 1850 49 58 1016.2 10/10  

 
   
............KEY...........
 
 
WCI - WIND CHILL  
TC - TEMPERATURE IN CELSIUS  
VSB - VISIBILITY
IN MILES  
HX - HEAT INDEX  
FAIR- INDICATES FEW OR NO CLOUDS BELOW 12,000 FT, WITH NO  
SIGNIFICANT WEATHER AND/OR S TO VISIBILITY.  
 
 
 
CLICK HERE TO GO TO PREVIOUS BULLETINS.

The Nexlab ME Page
The Nexlab NH Page Main Text Page